Location: Kershaw
(34.5481°N, 80.5823°W)
Time: 08:21:16
(UTC+00:00)

Explorer 7 - Pass Details

Date: 07 October 2022
Orbit: 481 x 665 km, 50.3° (Epoch: 28 November)

Event Time Altitude Azimuth Distance (km) Brightness Sun altitude
Rises 16:26:21 0° 294° (WNW) 3,001 10.3 48.5°
Reaches altitude 10° 16:30:01 10° 321° (NW) 2,086 9.5 48.7°
Maximum altitude 16:32:16 13° 349° (N) 1,877 9.3 48.8°
Drops below altitude 10° 16:34:31 10° 18° (NNE) 2,068 9.5 48.9°
Sets 16:38:06 0° 46° (NE) 2,952 10.3 49.1°
